Location: Fredericksburg
(30.2750°N, 98.8720°W)
Time: 05:59:37
(UTC-05:00)

Daily predictions for brighter satellites

Satellite Brightness Start Highest point End
(mag) Time Altitude Azimuth Time Altitude Azimuth Time Altitude Azimuth
Cosmos 1943 Rocket 4.1 03:45:56 10° N 03:50:11 25° ENE 03:50:11 25° ENE
USA 234 3.7 04:03:48 10° NE 04:08:50 56° NNE 04:08:50 56° NNE
ATLAS 5 CENTAUR R/B 4.2 04:20:31 17° N 04:20:31 17° N 04:21:57 10° N
ARIANE 5 R/B 4.4 04:13:07 10° N 04:15:13 25° N 04:15:13 25° N
SL-16 R/B 3.1 04:26:22 50° N 04:26:22 50° N 04:30:49 10° N
CENTAUR R/B 3.2 04:34:26 44° NNW 04:34:26 44° NNW 04:39:30 10° NNE
CZ-2D R/B 3.4 04:39:25 10° N 04:42:14 31° NNW 04:42:14 31° NNW
Cosmos 1908 Rocket 4.5 04:50:09 10° N 04:53:33 45° NE 04:53:33 45° NE
Cosmos 2074 Rocket 4.0 04:50:26 10° N 04:56:40 75° E 05:00:01 29° SSE
USA 32 4.2 05:02:38 53° SSE 05:03:45 70° E 05:08:58 10° N
Cosmos 2184 Rocket 4.0 04:57:54 10° N 05:04:18 84° E 05:08:26 23° S
Cosmos 2221 Rocket 3.8 05:06:39 65° NNE 05:06:39 65° NNE 05:10:28 10° N
Cosmos 1703 Rocket 3.9 05:07:23 58° N 05:07:23 58° N 05:11:01 10° N
Resurs 1-4 Rocket 3.5 05:03:21 10° NNW 05:06:03 24° NW 05:06:03 24° NW
Okean O Rocket 1.7 05:05:54 10° N 05:09:52 70° N 05:09:52 70° N
ADEOS II 3.7 05:12:12 10° NE 05:16:54 32° E 05:21:33 10° SSE
Cosmos 676 Rocket 4.1 05:16:20 40° S 05:18:07 69° ESE 05:23:17 10° NNE
deb Centaur AC-2 4.3 05:18:23 54° SSE 05:18:23 54° SSE 05:22:26 10° E
COSMOS 2406 4.0 05:19:48 33° WNW 05:19:48 33° WNW 05:24:40 10° N
Okean-O 4.1 05:17:08 10° NNE 05:21:11 34° E 05:25:12 10° SSE
Cosmos 1408 4.3 05:21:33 10° NNW 05:23:14 25° NNW 05:23:14 25° NNW
MOZ.5/SAFIR/RUBIN 5/SL-8 3.6 05:23:37 30° S 05:25:55 83° WSW 05:30:34 10° NNW
PSLV R/B 4.5 05:23:40 10° NNE 05:27:55 47° E 05:31:26 14° S
Centaur D-1AR AC-41 3.8 05:27:40 32° S 05:27:59 32° S 05:33:43 10° ESE
Okean 1-7 2.9 05:31:49 61° SW 05:32:20 69° W 05:36:40 10° N
CZ-4B R/B 3.0 05:27:10 10° N 05:32:25 68° WNW 05:34:28 37° SW
Cosmos 407 Rocket 3.5 05:31:50 48° WSW 05:32:53 58° WNW 05:38:04 10° N
Cosmos 1943 Rocket 3.6 05:29:13 10° NW 05:31:30 22° WNW 05:31:30 22° WNW
SeaSat 1 2.6 05:30:33 10° SSE 05:35:26 75° ENE 05:40:22 10° NNW
CZ-4B DEB 4.1 05:31:25 10° N 05:36:50 69° WNW 05:39:36 30° SSW
Cosmos 2285 Rocket 4.0 05:31:40 10° NNW 05:37:58 62° WSW 05:44:13 10° S
IRS-1C Rocket 4.5 05:33:05 10° N 05:38:03 43° WNW 05:39:06 38° WSW
GPS 2-05 Rocket1 3.8 05:38:31 35° NNW 05:38:54 36° N 05:42:02 10° ENE
Cosmos 2082 Rocket 3.6 05:37:35 10° S 05:42:46 37° ESE 05:47:59 10° NE
Atlas Centaur 2 1.3 05:42:14 49° WSW 05:43:21 85° S 05:48:18 10° E
CZ-4B R/B 3.1 05:40:50 10° N 05:44:24 43° WNW 05:44:28 43° W
Cosmos 1140 Rocket 3.8 05:41:58 11° S 05:46:48 65° ESE 05:51:52 10° NNE
EXPRESS MD2 3.2 05:47:58 36° SSE 05:48:22 40° SE 05:51:33 10° ENE
Cosmos 1833 Rocket 4.2 05:46:50 10° SSE 05:51:51 35° ESE 05:56:53 10° NE
Cosmos 1825 4.1 05:49:11 10° NW 05:50:12 16° NW 05:50:12 16° NW
Aureole 3 Rocket 4.4 05:52:03 21° SW 05:56:08 39° W 06:01:04 10° NNW
Okean 2 Rocket 3.2 05:54:28 10° NNW 05:58:52 53° W 06:03:15 10° S
Cosmos 1656 Rocket 3.8 05:54:05 10° NNW 05:59:12 46° WSW 06:04:21 10° S
Geosat 3.9 05:58:46 10° NNE 06:03:46 71° WNW 06:08:13 13° SSW
Cosmos 1741 Rocket 4.4 05:58:58 10° S 06:04:08 65° ESE 06:09:19 10° NNE
Cosmos 1674 Rocket 4.1 05:59:55 10° S 06:04:17 60° E 06:08:38 10° NNE
SEDSat Delta rocket 4.4 06:02:23 15° SSW 06:04:48 25° SSE 06:08:22 10° E
PSLV R/B 4.3 06:01:48 12° NW 06:04:50 43° NNE 06:08:05 10° E
Cosmos 1782 Rocket 4.4 06:08:16 10° NNW 06:11:56 27° W 06:15:04 13° SW
ADEOS Rocket 3.6 06:06:56 10° N 06:14:36 63° WNW 06:22:00 10° SSW
Meteor 1-31 Rocket 2.9 06:11:46 10° NNE 06:15:34 76° ESE 06:19:22 10° S
Meteor 2-6 Rocket 4.4 06:14:20 10° S 06:20:17 83° E 06:26:11 10° N
NOAA 6 4.2 06:23:24 10° NNE 06:28:34 82° ESE 06:33:44 10° S
Cosmos 2181 Rocket 4.4 06:23:03 10° SSW 06:29:06 43° W 06:35:09 10° N
Meteor 1-25 Rocket 4.2 06:26:45 10° NNW 06:32:15 66° W 06:37:47 10° S
Cosmos 1242 Rocket 3.3 06:31:14 10° S 06:34:50 58° E 06:38:29 10° NNE
Gbstr 26 Del rocket 4.4 06:29:15 10° SW 06:36:19 77° NW 06:44:23 10° NE
Thor Agena Rocket 4.3 06:32:10 10° SSW 06:36:32 29° W 06:41:00 10° NW
Meteor 1-20 Rocket 4.3 06:30:52 10° NNW 06:36:36 73° W 06:42:23 10° S
CZ-3 R/B 3.9 06:13:16 10° WNW 06:42:00 36° SW 06:50:06 10° SSE
Cosmos 1356 3.5 06:38:40 10° NNW 06:42:10 60° W 06:45:38 10° S
OAO 3 Rocket 3.4 06:42:34 10° WSW 06:47:18 64° SSE 06:51:59 10° ENE
Cosmos 1238 Rocket 3.5 06:44:14 10° S 06:47:22 52° E 06:51:04 10° NNE
Cosmos 1400 Rocket 2.7 06:43:52 10° N 06:47:45 89° W 06:51:37 10° S
Delta 168 4.5 06:44:06 10° WSW 06:50:36 40° S 06:55:01 10° ESE
